Terminal Aerodrome Forecast
Issued by NWS

Home | Current Version | Previous Version | Text Only | Print | Product List | Glossary On
Versions: 1 2 3 4 5 6 7 8 9 10 11 12 13 14 15 16 17
000
FTUS41 KPBZ 081503 AAB
TAFFKL
TAF AMD
KFKL 081503Z 0815/0912 29012G22KT P6SM OVC025
      TEMPO 0816/0820 3SM -SHSN
     FM090600 25010G20KT 2SM -SHSN OVC025
      AMD NOT SKED=

USA.gov is the U.S. government's official web portal to all federal, state and local government web resources and services.